Home   Weather   Tulsa   Past weeks

Flag for USA Past Weather in Tulsa, Oklahoma, USA — Yesterday and Last 2 Weeks

Now
49 °F

Clear.


Feels Like: 43 °F
Forecast: 33 / 55 °F
Wind: 15 mph from Northwest

Location: Tulsa International Airport

Current Time: Jan 22, 2017 at 8:25:30 pm

Latest Report: Jan 22, 2017 at 7:53 pm


Visibility: 10 mi

Pressure: 29.84 "Hg

Humidity: 57%

Dew Point: 34 °F

Location of TulsaLocation

Past Weather in Tulsa — Graph

°F

Tulsa Temperature Yesterday

Maximum temperature yesterday: 61 °F (at 12:53 pm)
Minimum temperature yesterday: 41 °F (at 7:53 am)
Average temperature yesterday: 52 °F

High & Low Weather Summary for the Past Weeks

 TemperatureHumidityPressure
High78 °F (Jan 11, 2:53 pm)100% (Jan 13, 10:26 am)30.72 "Hg (Jan 13, 10:26 am)
Low19 °F (Jan 8, 3:53 am)23% (Jan 10, 3:53 pm)29.36 "Hg (Jan 22, 2:53 am)
Average44 °F79%30.04 "Hg
* Reported Jan 7 6:53 pm — Jan 22 6:53 pm, Tulsa, Weather by CustomWeather, © 2017

Note: Actual official high and low records may vary slightly from our data, if they occured in-between our weather recording intervals... More about our weather records

Advertising

Tulsa Weather History for the Previous 24 Hours

Scroll right to see more
 ConditionsComfort  
Time TempWeatherWind HumidityBarometerVisibility
6:53 pm
Sun, Jan 22
48 °FClear.9 mph59%29.82 "Hg10 mi
5:53 pm52 °FClear.14 mph49%29.78 "Hg10 mi
4:53 pm57 °FPassing clouds.15 mph41%29.72 "Hg10 mi
3:53 pm57 °FPassing clouds.18 mph42%29.70 "Hg10 mi
2:53 pm57 °FScattered clouds.22 mph55%29.66 "Hg10 mi
1:53 pm54 °FPartly sunny.24 mph69%29.64 "Hg10 mi
12:53 pm51 °FOvercast.28 mph92%29.63 "Hg10 mi
12:37 pm51 °FMore clouds than sun.24 mph92%29.64 "Hg10 mi
11:53 am50 °FMostly cloudy.23 mph96%29.62 "Hg10 mi
11:05 am50 °FLight rain. Mostly cloudy.24 mph96%29.60 "Hg10 mi
10:53 am50 °FLight rain. Mostly cloudy.26 mph96%29.59 "Hg10 mi
9:53 am50 °FLight rain. Mostly cloudy.22 mph100%29.55 "Hg8 mi
8:53 am49 °FLight rain. Fog.20 mph100%29.52 "Hg5 mi
7:53 am50 °FRain. Low clouds.17 mph100%29.48 "Hg7 mi
7:17 am50 °FRain. Fog.14 mph100%29.46 "Hg6 mi
6:53 am50 °FRain. Fog.12 mph100%29.44 "Hg5 mi
6:30 am50 °FRain. Fog.10 mph100%29.45 "Hg5 mi
6:12 am50 °FLight rain. Fog.9 mph100%29.44 "Hg6 mi
5:53 am50 °FLight rain. Fog.12 mph100%29.42 "Hg6 mi
4:53 am50 °FLight rain. Mostly cloudy.6 mph100%29.39 "Hg10 mi
3:53 am51 °FLight rain. Fog.9 mph100%29.38 "Hg6 mi
3:22 am51 °FStrong thunderstorms. Fog.10 mph100%29.37 "Hg2 mi
2:53 am55 °FThunderstorms. Fog.No wind77%29.36 "Hg9 mi
2:36 am56 °FStrong thunderstorms. Fog.7 mph70%29.37 "Hg3 mi
2:20 am56 °FStrong thunderstorms. Fog.3 mph70%29.38 "Hg1 mi
2:04 am50 °FStrong thunderstorms. Fog.No wind100%29.37 "Hg1 mi
2:00 am50 °FThunderstorms. Fog.3 mph100%29.37 "Hg2 mi
12:53 am53 °FLight rain. Overcast.3 mph93%29.36 "Hg10 mi
11:53 pm
Sat, Jan 21
49 °FPassing clouds.No wind93%29.37 "Hg10 mi
10:53 pm52 °FMostly cloudy.5 mph93%29.39 "Hg10 mi
9:53 pm51 °FPassing clouds.7 mph89%29.38 "Hg10 mi
8:53 pm52 °FPassing clouds.5 mph77%29.39 "Hg10 mi
Weather by CustomWeather, © 2017

See weather overviewHow to use our weather pages